Location: Zapote
(9.9191°N, 84.0597°W)
Time: 10:38:44
(UTC-06:00)

Courier 1B - Visible Passes

Search period start: 26 February 2021 00:00
Search period end: 08 March 2021 00:00
Orbit: 962 x 1209 km, 28.3° (Epoch: 25 February)

Date Brightness Start Highest point End Pass type
(mag) Time Alt. Az. Time Alt. Az. Time Alt. Az.
26 Feb 9.3 04:59:43 10° SSW 05:05:09 27° SSE 05:10:31 10° E visible
26 Feb 10.0 18:23:19 10° WSW 18:29:02 22° SSW 18:34:47 10° SSE visible
27 Feb 9.6 04:06:47 10° SSW 04:11:21 19° SSE 04:15:50 10° ESE visible
28 Feb 9.8 03:16:16 13° SSE 03:17:29 13° SSE 03:20:32 10° ESE visible
28 Feb 8.2 05:05:15 10° SW 05:11:38 52° SSE 05:17:54 10° ENE visible
28 Feb 10.4 18:33:21 10° SW 18:35:42 11° SSW 18:38:04 10° S visible
01 Mar 8.7 04:13:31 18° SSW 04:17:54 37° SSE 04:23:48 10° E visible
02 Mar 9.1 03:23:46 26° SSE 03:24:07 27° SSE 03:29:30 10° E visible
02 Mar 7.5 05:11:29 10° WSW 05:18:09 85° NNW 05:24:37 10° ENE visible
03 Mar 10.1 02:33:59 12° ESE 02:33:59 12° ESE 02:34:48 10° ESE visible
03 Mar 7.7 04:20:55 30° SW 04:24:23 70° SSE 04:30:52 10° ENE visible
04 Mar 8.2 03:31:03 49° SE 03:31:03 49° SE 03:36:57 10° ENE visible
04 Mar 7.9 05:18:18 10° W 05:24:43 49° NNW 05:30:56 10° NE visible
05 Mar 9.8 02:41:06 18° E 02:41:06 18° E 02:42:53 10° E visible
05 Mar 7.5 04:28:01 35° W 04:30:54 67° NNW 04:37:23 10° NE visible
06 Mar 7.7 03:37:59 70° ENE 03:37:59 70° ENE 03:43:44 10° ENE visible
06 Mar 8.5 05:25:41 10° W 05:31:26 30° NNW 05:37:02 10° NE visible
07 Mar 9.6 02:47:53 22° ENE 02:47:53 22° ENE 02:49:58 10° ENE visible
07 Mar 8.2 04:34:48 28° WNW 04:37:31 39° NNW 04:43:35 10° NE visible
